Date,TemperatureHighF,TemperatureAvgF,TemperatureLowF,DewpointHighF,DewpointAvgF,DewpointLowF,HumidityHigh,HumidityAvg,HumidityLow,PressureMaxIn,PressureMinIn,WindSpeedMaxMPH,WindSpeedAvgMPH,GustSpeedMaxMPH,PrecipitationSumIn
2012-5-25,82,82,82,-100,-100,-100,0,0,100,0.00,40.00,0,0,0,0.00
2012-6-8,84,65,71,77,62,0,104,52,76,0.00,40.00,10,-144,0,2.40
2012-6-9,77,75,74,77,75,72,104,99,90,29.82,0.00,11,2,0,0.15
2012-6-10,78,76,71,79,75,0,104,85,86,29.94,29.76,18,3,13,1.30
2012-6-11,89,82,77,79,76,72,96,82,64,30.09,29.92,12,4,12,0.13
2012-6-12,93,78,68,76,68,60,99,73,39,30.15,29.90,13,2,13,0.29
2012-6-13,90,80,70,70,66,60,89,63,38,30.00,29.87,9,3,10,0.00
2012-6-14,91,79,72,71,68,61,95,70,39,29.98,29.89,14,2,14,0.00
2012-6-15,88,78,72,73,67,61,85,69,48,30.05,29.90,18,3,18,0.00
2012-6-16,87,78,70,71,65,58,94,65,43,30.10,30.00,13,0,13,0.00
2012-6-17,86,77,67,73,67,60,89,71,48,30.05,29.92,14,0,14,0.00
2012-6-18,88,81,77,70,68,63,77,64,50,30.00,29.90,14,4,14,0.00
2012-6-19,87,81,77,72,68,65,78,65,53,30.06,29.96,13,4,13,0.00
2012-6-20,88,80,70,72,67,59,92,65,42,30.04,29.97,12,3,12,0.00
2012-6-21,94,79,68,73,67,54,92,70,29,29.98,29.85,10,2,10,0.00
2012-6-22,91,81,73,76,70,64,87,68,45,29.90,29.79,11,2,11,0.04
2012-6-23,90,79,73,75,72,0,97,80,51,29.84,29.77,11,-4,11,0.01
2012-6-24,90,83,80,70,69,67,71,62,46,29.73,0.00,5,1,5,0.00
2012-6-25,97,60,75,69,45,0,78,35,27,29.72,29.57,12,-312,12,0.00
2012-6-26,99,85,75,77,69,56,87,60,25,29.73,29.58,9,2,9,0.00
2012-6-27,88,81,72,77,70,64,83,68,54,29.98,29.72,12,3,12,0.00
2012-6-28,91,85,81,78,74,0,88,70,47,30.07,29.96,10,3,10,0.00
2012-6-29,95,85,78,77,74,68,93,68,46,30.02,29.89,11,3,11,0.00
2012-6-30,91,83,74,76,71,64,93,68,46,29.95,29.88,10,2,10,0.00
2012-7-1,93,84,74,77,73,66,97,71,44,30.05,29.92,10,2,10,0.00
2012-7-2,97,84,77,76,70,64,83,64,35,30.10,29.97,11,2,11,0.00
2012-7-3,95,82,74,74,71,65,95,72,39,30.04,29.91,16,2,16,0.16
2012-7-4,92,80,72,75,72,66,95,77,48,30.06,29.95,16,2,16,0.00
2012-7-5,95,83,71,75,71,64,94,69,38,30.06,29.92,11,2,11,0.00
2012-7-6,88,81,74,74,71,68,92,71,53,30.03,0.00,10,2,10,0.00
2012-7-7,89,80,73,74,71,66,95,75,53,30.05,29.95,9,2,9,0.00
2012-7-8,91,82,76,74,72,64,90,70,44,30.06,29.96,9,2,9,0.00
2012-7-9,87,78,73,75,73,71,94,86,64,30.02,29.80,10,1,10,0.09
2012-7-10,86,78,72,77,73,68,98,85,71,30.00,29.90,12,2,12,1.34
2012-7-11,80,76,73,73,72,70,96,87,74,29.98,29.92,8,1,8,0.06
2012-7-12,88,80,72,76,73,67,95,78,57,30.00,29.92,18,3,18,0.00
2012-7-13,88,79,70,77,72,68,98,78,59,30.03,29.94,10,2,10,0.00
2012-7-14,82,77,73,76,73,70,97,89,74,30.04,29.93,10,2,10,0.36
2012-7-15,88,82,75,76,74,69,98,77,58,30.07,29.95,12,3,12,0.41
2012-7-16,89,81,75,75,73,66,94,76,55,30.07,30.00,9,2,9,0.00
2012-7-17,94,86,70,92,70,0,99,61,40,30.05,0.00,26,-32,26,0.66
2012-7-18,71,0,200,0,0,0,0,0,100,30.00,29.80,6,-1000,14,0.00
2012-7-19,-200,0,200,0,0,0,0,0,100,0.00,40.00,0,-1000,0,0.00
2012-7-30,-200,0,200,0,0,0,0,0,100,0.00,40.00,0,-1000,0,0.00
2012-9-1,81,81,80,78,77,76,90,87,85,0.00,40.00,8,2,8,0.00
2012-9-2,90,83,78,78,76,70,92,80,56,0.00,40.00,12,3,12,0.00
2012-9-3,90,83,78,79,76,73,93,78,61,0.00,40.00,11,-1,11,0.00
2012-9-4,91,82,73,78,73,0,95,75,48,0.00,40.00,15,3,15,0.05
2012-9-5,91,81,74,78,74,-100,95,82,59,0.00,40.00,17,2,17,0.01
2012-9-6,87,80,74,76,74,72,96,82,64,0.00,40.00,12,3,12,0.00
2012-9-7,86,81,74,76,74,71,95,78,64,0.00,40.00,9,2,9,0.00
2012-9-8,92,80,74,78,73,67,96,79,48,0.00,40.00,12,2,12,0.06
2012-9-9,84,74,64,68,60,48,90,63,31,0.00,40.00,10,2,10,0.00
2012-9-10,83,71,60,65,59,50,96,69,35,0.00,40.00,9,1,9,0.00
2012-9-11,85,74,62,68,63,58,93,70,46,0.00,40.00,12,2,12,0.00
2012-9-12,84,76,69,74,68,63,83,76,65,0.00,40.00,17,4,17,0.00
2012-9-13,84,79,73,74,71,69,89,77,68,0.00,40.00,11,2,14,0.00
2012-9-14,86,76,68,71,68,64,95,76,52,0.00,40.00,8,2,8,0.00
2012-9-15,86,75,67,72,66,62,91,73,47,0.00,40.00,10,2,10,0.00
2012-9-16,79,78,77,71,70,70,80,76,73,0.00,40.00,5,2,6,0.00
2012-9-17,79,76,72,75,73,0,97,88,79,0.00,40.00,19,3,19,1.99
2012-9-18,83,76,70,73,68,61,97,77,49,0.00,40.00,16,3,16,0.00
2012-9-19,79,73,66,65,62,56,84,68,53,0.00,40.00,7,2,7,0.00
2012-9-20,82,71,59,66,60,53,92,70,46,0.00,40.00,7,1,7,0.00
2012-9-21,84,74,64,69,65,56,96,75,42,0.00,40.00,8,1,8,0.00
2012-9-28,75,74,73,74,73,70,97,95,93,0.00,40.00,2,0,2,0.03
2012-9-29,76,74,72,74,72,70,99,93,88,0.00,40.00,8,1,8,0.44
2012-9-30,81,77,72,76,73,69,98,88,76,0.00,40.00,16,4,16,1.72
2012-10-1,78,68,63,74,63,58,91,82,70,0.00,40.00,16,5,16,0.00
2012-10-2,79,68,60,62,59,50,96,75,39,0.00,40.00,10,2,10,0.00
2012-10-3,79,71,60,67,63,59,96,77,57,0.00,40.00,11,2,11,0.00
2012-10-4,84,73,63,70,66,61,95,80,49,0.00,40.00,9,2,9,0.00
2012-10-5,84,72,63,70,65,58,97,79,44,0.00,40.00,8,1,8,0.00
2012-10-6,84,73,62,67,64,58,97,74,40,0.00,40.00,8,-2,8,0.00
2012-10-7,76,65,56,64,57,51,91,75,54,0.00,40.00,13,3,13,0.00
2012-10-8,75,61,52,54,50,44,85,67,44,0.00,40.00,13,2,13,0.00
2012-10-9,76,62,50,61,54,48,94,75,52,0.00,40.00,9,1,9,0.00
2012-10-10,82,69,57,67,61,55,97,78,49,0.00,40.00,6,1,6,0.00
2012-10-11,80,70,62,72,62,59,96,77,52,0.00,40.00,10,2,10,0.00
2012-10-12,82,74,60,67,63,57,97,69,45,0.00,40.00,8,2,8,0.00
2012-10-13,76,76,75,72,70,69,88,84,79,0.00,40.00,6,2,6,0.00
2012-10-14,84,78,75,73,70,66,89,75,59,0.00,40.00,10,2,10,0.00
2012-10-15,84,75,61,73,63,50,94,70,33,0.00,40.00,12,2,12,0.00
2012-10-16,76,65,53,58,52,43,94,64,34,0.00,40.00,10,2,10,0.00
2012-10-17,75,74,65,70,69,57,84,82,76,0.00,40.00,8,4,9,0.00
2012-10-18,81,72,58,73,60,42,98,71,25,0.00,40.00,11,2,11,1.28
2012-10-19,78,63,51,52,45,32,91,58,23,0.00,40.00,13,-2,13,0.00
2012-10-20,78,61,46,54,47,36,94,65,24,0.00,40.00,8,1,8,0.00
2012-10-21,77,61,51,59,53,46,97,77,38,0.00,40.00,8,1,8,0.00
2012-10-22,78,73,71,66,64,59,81,73,55,0.00,40.00,10,3,10,0.00
2012-10-23,80,72,60,69,64,58,95,78,62,0.00,40.00,12,3,12,0.00
2012-10-24,81,71,62,69,64,60,97,79,57,0.00,40.00,10,2,10,0.00
2012-10-25,80,71,61,72,66,60,98,86,65,0.00,40.00,9,2,9,0.00
2012-10-26,84,72,62,68,62,54,99,73,38,0.00,40.00,11,2,13,0.00
2012-10-27,67,54,47,56,47,43,89,79,66,0.00,40.00,16,5,16,0.00
2012-10-28,66,53,43,44,38,0,90,61,26,0.00,40.00,16,4,16,0.00
2012-10-29,63,51,41,37,32,24,82,51,25,0.00,40.00,16,4,16,0.00
2012-10-30,67,50,39,45,32,-100,87,58,23,0.00,40.00,7,-4,7,0.00
2012-10-31,76,60,46,61,52,-100,95,77,36,0.00,40.00,7,2,7,0.00
2012-11-1,73,63,54,60,53,39,96,72,31,0.00,40.00,7,2,7,0.00
2012-11-2,78,66,53,67,61,0,99,85,61,0.00,40.00,11,2,11,0.00
2012-11-3,80,69,57,67,63,57,99,83,50,0.00,40.00,9,2,9,0.00
2012-11-4,76,64,58,67,62,0,100,92,63,0.00,40.00,19,1,19,0.97
2012-11-5,67,60,53,62,55,44,99,83,52,0.00,40.00,9,2,9,0.09
2012-11-6,62,53,45,56,49,43,99,84,64,0.00,40.00,12,3,12,0.00
2012-11-7,67,54,43,51,41,30,98,67,25,0.00,40.00,15,2,15,0.00
2012-11-8,63,49,38,47,41,33,97,76,36,0.00,40.00,7,1,7,0.00
2012-11-9,68,54,40,56,48,39,98,82,51,0.00,40.00,8,1,8,0.00
2012-11-10,72,62,48,61,56,47,98,80,60,0.00,40.00,12,3,12,0.00
2012-11-11,77,70,64,65,62,59,89,75,59,0.00,40.00,15,4,15,0.00
2012-11-12,70,57,48,65,51,39,96,81,67,0.00,40.00,15,3,15,0.15
2012-11-13,60,49,40,40,31,22,78,52,26,0.00,40.00,17,4,17,0.00
2012-11-14,65,50,41,42,34,27,87,59,25,0.00,40.00,11,2,11,0.00
2012-11-15,66,50,40,50,43,36,95,77,41,0.00,40.00,9,1,9,0.00
2012-11-16,67,52,42,52,45,39,98,79,38,0.00,40.00,10,1,10,0.00
2012-11-17,67,52,42,44,40,33,96,68,29,0.00,40.00,10,1,10,0.00
2012-11-18,70,52,41,50,42,34,93,72,33,0.00,40.00,9,1,9,0.00
2012-11-19,71,55,44,52,46,42,94,74,38,0.00,40.00,9,1,9,0.00
2012-11-20,71,56,47,53,48,39,96,77,33,0.00,40.00,8,1,8,0.00
2012-11-21,73,57,45,55,49,44,96,77,40,0.00,40.00,8,1,8,0.00
2012-11-22,72,57,44,54,49,43,96,77,41,0.00,40.00,7,1,7,0.00
2012-11-23,75,60,46,57,51,45,98,74,39,0.00,40.00,13,2,13,0.00
2012-11-24,61,50,36,47,35,26,93,59,27,0.00,40.00,13,2,13,0.00
2012-11-25,60,46,32,46,38,30,95,76,43,0.00,40.00,10,1,10,0.00
2012-11-26,64,63,63,62,62,61,94,93,92,0.00,40.00,4,1,4,0.00
2012-11-27,66,60,51,63,58,48,98,92,80,0.00,40.00,14,2,14,0.35
2012-11-28,63,50,40,49,41,31,97,74,31,0.00,40.00,10,2,10,0.00
2012-11-29,64,49,36,50,42,33,95,78,53,0.00,40.00,10,2,10,0.00
2012-11-30,70,56,47,60,52,45,98,86,66,0.00,40.00,8,1,8,0.00
2012-12-1,72,60,47,62,57,46,99,90,69,0.00,40.00,10,2,10,0.00
2012-12-2,72,64,55,63,59,54,98,87,68,0.00,40.00,9,2,9,0.00
2012-12-3,72,64,52,66,61,52,99,91,79,0.00,40.00,10,2,10,0.01
2012-12-4,74,68,65,67,65,62,99,89,77,0.00,40.00,8,2,8,0.01
2012-12-5,70,66,63,64,62,57,97,88,65,0.00,40.00,9,2,9,0.06
2012-12-6,72,67,65,64,63,59,95,86,69,0.00,40.00,10,3,10,0.00
2012-12-7,71,65,58,65,63,57,98,92,80,0.00,40.00,9,2,9,0.00
2012-12-8,72,66,63,66,64,61,100,93,72,0.00,40.00,8,2,8,0.00
2012-12-9,73,67,57,69,65,56,99,93,78,0.00,40.00,11,2,11,0.01
2012-12-10,76,63,46,70,60,40,98,91,78,0.00,40.00,17,4,17,0.37
2012-12-11,47,43,39,40,37,35,91,80,71,0.00,40.00,12,3,12,0.00
2012-12-12,60,44,37,36,30,18,87,62,24,0.00,40.00,11,2,11,0.00
2012-12-13,60,45,33,45,34,27,82,66,42,0.00,40.00,10,2,10,0.00
2012-12-14,56,55,54,53,52,46,96,90,71,0.00,40.00,8,3,8,0.00
2012-12-15,68,60,53,62,57,51,98,88,75,0.00,40.00,8,2,8,0.00
2012-12-16,72,64,61,67,62,0,103,93,80,0.00,40.00,8,2,8,0.30
2012-12-17,67,63,53,66,60,0,103,91,80,0.00,40.00,6,2,8,0.02
2012-12-18,63,52,41,55,48,42,100,85,54,0.00,40.00,4,1,5,0.02
2012-12-19,71,58,41,67,55,40,104,88,65,0.00,40.00,5,2,5,0.00
2012-12-20,71,59,44,69,44,22,104,63,23,0.00,40.00,12,7,12,0.15
2012-12-21,57,44,34,30,22,12,79,46,21,0.00,40.00,8,3,12,0.00
2012-12-22,57,42,29,41,32,20,94,71,28,0.00,40.00,4,1,8,0.00
2012-12-23,65,54,39,59,49,37,101,85,68,0.00,40.00,5,2,5,0.00
2012-12-24,75,65,60,65,60,0,104,84,60,0.00,40.00,21,4,21,0.05
2012-12-25,68,62,54,68,60,0,104,89,71,0.00,40.00,10,4,21,0.99
2012-12-26,54,44,38,48,35,30,85,70,53,0.00,40.00,10,6,10,2.45
2012-12-27,49,42,34,43,36,0,93,82,63,0.00,40.00,5,2,10,0.00
2012-12-28,64,58,44,64,55,40,99,89,82,0.00,40.00,18,4,18,0.99
2012-12-29,52,44,35,48,35,28,90,70,44,0.00,40.00,19,-22,19,0.00
2012-12-30,55,39,29,35,28,19,94,70,27,0.00,40.00,5,2,10,0.00
2012-12-31,59,49,35,56,42,30,96,76,60,0.00,40.00,6,3,10,0.00
2013-1-1,69,61,54,64,59,52,99,93,81,0.00,40.00,7,3,12,0.10